Weather reports worldwide

Advertisment
Verhnedvinsk, Belarus (26554): temperature & dewpoint: 13.08.2019 01:00:00 - 19.08.2019 01:00:00 (MSK)Verhnedvinsk, Belarus (26554): wind speed: 13.08.2019 01:00:00 - 19.08.2019 01:00:00 (MSK)Verhnedvinsk, Belarus (26554): wind direction: 13.08.2019 01:00:00 - 19.08.2019 01:00:00 (MSK)Verhnedvinsk, Belarus (26554): reduced air pressure: 13.08.2019 01:00:00 - 19.08.2019 01:00:00 (MSK)Verhnedvinsk, Belarus (26554): visibility: 13.08.2019 01:00:00 - 19.08.2019 01:00:00 (MSK)
Date & Time tt [°C] td [°C] ff [km/h] ff [kn] dd ppp [hPa] vv [km]
19.08.2019 01:00:00 - - - - - - -
19.08.2019 00:00:00 12,9 12,7 0 0 N 1013,4 10
18.08.2019 23:00:00 - - - - - - -
18.08.2019 22:00:00 - - - - - - -
18.08.2019 21:00:00 16,2 12,7 0 0 N 1013,0 15
18.08.2019 20:00:00 - - - - - - -
18.08.2019 19:00:00 - - - - - - -
18.08.2019 18:00:00 23,6 12,5 0 0 N 1012,3 20
18.08.2019 17:00:00 - - - - - - -
18.08.2019 16:00:00 - - - - - - -
18.08.2019 15:00:00 22,6 13,0 4 2 WSW 1012,4 20
18.08.2019 14:00:00 - - - - - - -
18.08.2019 13:00:00 - - - - - - -
18.08.2019 12:00:00 21,2 12,1 7 4 N 1012,8 20
18.08.2019 11:00:00 - - - - - - -
18.08.2019 10:00:00 - - - - - - -
18.08.2019 09:00:00 14,0 12,5 0 0 N 1013,7 12
18.08.2019 08:00:00 - - - - - - -
18.08.2019 07:00:00 - - - - - - -
18.08.2019 06:00:00 8,4 8,0 0 0 N 1014,3 3,5
18.08.2019 05:00:00 - - - - - - -
18.08.2019 04:00:00 - - - - - - -
18.08.2019 03:00:00 9,4 8,8 0 0 N 1015,0 7
18.08.2019 02:00:00 - - - - - - -
18.08.2019 01:00:00 - - - - - - -
18.08.2019 00:00:00 12,2 11,6 0 0 N 1015,1 8
17.08.2019 23:00:00 - - - - - - -
17.08.2019 22:00:00 - - - - - - -
17.08.2019 21:00:00 16,9 12,1 0 0 N 1015,3 15
17.08.2019 20:00:00 - - - - - - -
17.08.2019 19:00:00 - - - - - - -
17.08.2019 18:00:00 21,9 10,9 4 2 NNE 1015,1 15
17.08.2019 17:00:00 - - - - - - -
17.08.2019 16:00:00 - - - - - - -
17.08.2019 15:00:00 21,6 10,8 4 2 ENE 1015,8 17
17.08.2019 14:00:00 - - - - - - -
17.08.2019 13:00:00 - - - - - - -
17.08.2019 12:00:00 20,9 12,3 7 4 NE 1017,1 15
17.08.2019 11:00:00 - - - - - - -
17.08.2019 10:00:00 - - - - - - -
17.08.2019 09:00:00 17,3 13,0 0 0 N 1017,7 14
17.08.2019 08:00:00 - - - - - - -
17.08.2019 07:00:00 - - - - - - -
17.08.2019 06:00:00 8,6 8,4 4 2 NNE 1017,9 8
17.08.2019 05:00:00 - - - - - - -
17.08.2019 04:00:00 - - - - - - -
17.08.2019 03:00:00 10,0 9,8 0 0 N 1017,8 7
17.08.2019 02:00:00 - - - - - - -
17.08.2019 01:00:00 - - - - - - -
17.08.2019 00:00:00 12,0 11,7 0 0 N 1017,3 8
16.08.2019 23:00:00 - - - - - - -
16.08.2019 22:00:00 - - - - - - -
16.08.2019 21:00:00 16,1 12,2 4 2 NE 1016,3 15
16.08.2019 20:00:00 - - - - - - -
16.08.2019 19:00:00 - - - - - - -
16.08.2019 18:00:00 21,1 11,1 7 4 N 1015,5 20
16.08.2019 17:00:00 - - - - - - -
16.08.2019 16:00:00 - - - - - - -
16.08.2019 15:00:00 20,9 10,8 4 2 NNE 1015,9 20
16.08.2019 14:00:00 - - - - - - -
16.08.2019 13:00:00 - - - - - - -
16.08.2019 12:00:00 20,4 11,2 4 2 NW 1016,2 20
16.08.2019 11:00:00 - - - - - - -
16.08.2019 10:00:00 - - - - - - -
16.08.2019 09:00:00 15,3 12,8 0 0 N 1016,8 15
16.08.2019 08:00:00 - - - - - - -
16.08.2019 07:00:00 - - - - - - -
16.08.2019 06:00:00 9,1 9,1 0 0 N 1016,8 0,1
16.08.2019 05:00:00 - - - - - - -
16.08.2019 04:00:00 - - - - - - -
16.08.2019 03:00:00 10,9 10,7 0 0 N 1016,8 8
16.08.2019 02:00:00 - - - - - - -
16.08.2019 01:00:00 - - - - - - -
16.08.2019 00:00:00 11,4 11,2 0 0 N 1016,2 7
15.08.2019 23:00:00 - - - - - - -
15.08.2019 22:00:00 - - - - - - -
15.08.2019 21:00:00 14,5 12,5 0 0 N 1015,2 15
15.08.2019 20:00:00 - - - - - - -
15.08.2019 19:00:00 - - - - - - -
15.08.2019 18:00:00 19,3 10,8 4 2 WNW 1014,4 20
15.08.2019 17:00:00 - - - - - - -
15.08.2019 16:00:00 - - - - - - -
15.08.2019 15:00:00 17,6 11,9 7 4 WSW 1014,6 20
15.08.2019 14:00:00 - - - - - - -
15.08.2019 13:00:00 - - - - - - -
15.08.2019 12:00:00 17,7 11,5 11 6 WSW 1014,4 15
15.08.2019 11:00:00 - - - - - - -
15.08.2019 10:00:00 - - - - - - -
15.08.2019 09:00:00 13,8 12,9 7 4 W 1014,0 8
15.08.2019 08:00:00 - - - - - - -
15.08.2019 07:00:00 - - - - - - -
15.08.2019 06:00:00 11,8 11,7 11 6 W 1012,8 5
15.08.2019 05:00:00 - - - - - - -
15.08.2019 04:00:00 - - - - - - -
15.08.2019 03:00:00 11,6 11,4 7 4 W 1012,2 6
15.08.2019 02:00:00 - - - - - - -
15.08.2019 01:00:00 - - - - - - -
15.08.2019 00:00:00 12,4 12,2 4 2 W 1011,7 7
14.08.2019 23:00:00 - - - - - - -
14.08.2019 22:00:00 - - - - - - -
14.08.2019 21:00:00 15,2 15,0 7 4 WNW 1012,3 7
14.08.2019 20:00:00 - - - - - - -
14.08.2019 19:00:00 - - - - - - -
14.08.2019 18:00:00 16,8 16,6 4 2 SW 1012,8 8
14.08.2019 17:00:00 - - - - - - -
14.08.2019 16:00:00 - - - - - - -
14.08.2019 15:00:00 18,6 15,9 7 4 SSW 1013,3 15
14.08.2019 14:00:00 - - - - - - -
14.08.2019 13:00:00 - - - - - - -
14.08.2019 12:00:00 18,7 14,8 7 4 SSW 1013,2 15
14.08.2019 11:00:00 - - - - - - -
14.08.2019 10:00:00 - - - - - - -
14.08.2019 09:00:00 17,2 15,5 7 4 WSW 1013,6 10
14.08.2019 08:00:00 - - - - - - -
14.08.2019 07:00:00 - - - - - - -
14.08.2019 06:00:00 12,2 12,2 4 2 SW 1013,4 0,8
14.08.2019 05:00:00 - - - - - - -
14.08.2019 04:00:00 - - - - - - -
14.08.2019 03:00:00 14,0 13,6 7 4 SW 1012,9 4,5
14.08.2019 02:00:00 - - - - - - -
14.08.2019 01:00:00 - - - - - - -
14.08.2019 00:00:00 15,4 14,5 4 2 SW 1012,1 6
13.08.2019 23:00:00 - - - - - - -
13.08.2019 22:00:00 - - - - - - -
13.08.2019 21:00:00 17,3 16,5 7 4 WSW 1011,1 8
13.08.2019 20:00:00 - - - - - - -
13.08.2019 19:00:00 - - - - - - -
13.08.2019 18:00:00 20,1 18,5 11 6 NW 1009,6 14
13.08.2019 17:00:00 - - - - - - -
13.08.2019 16:00:00 - - - - - - -
13.08.2019 15:00:00 21,1 20,1 7 4 WSW 1008,2 12
13.08.2019 14:00:00 - - - - - - -
13.08.2019 13:00:00 - - - - - - -
13.08.2019 12:00:00 18,5 18,0 4 2 ESE 1008,0 4,2
13.08.2019 11:00:00 - - - - - - -
13.08.2019 10:00:00 - - - - - - -
13.08.2019 09:00:00 18,4 17,9 4 2 ENE 1009,0 7
13.08.2019 08:00:00 - - - - - - -
13.08.2019 07:00:00 - - - - - - -
13.08.2019 06:00:00 18,6 17,7 0 0 N 1010,5 9
13.08.2019 05:00:00 - - - - - - -
13.08.2019 04:00:00 - - - - - - -
13.08.2019 03:00:00 19,1 16,4 11 6 SSE 1011,5 12
13.08.2019 02:00:00 - - - - - - -
13.08.2019 01:00:00 - - - - - - -

tt = temperature
td = dewpoint
ff = wind speed
dd = wind direction
ppp = reduced air pressure
vv = visibility

Next stations